Powrót do katalogu

ICEYE-X63

AktywnyNaukaSSO
NORAD 67372·PAYLOAD·🇫🇮 Finland

Wystrzelony Jan 11, 2026 z Vandenberg Space Force Base

Loading…

Następne Przeloty (najbliższe 24 godziny)

TLE

ŚwieżeSource: Space-Track

Epoka: Sep 13, 2026, 22:59 UTC

1 67372U 26004K   26256.95829480  .00000655  00000-0  76538-4 0  9992
2 67372  97.8067 254.2447 0003959 176.2187 183.9060 14.88435241 36501

Śledź ICEYE-X63 w czasie rzeczywistym z AllMySat

Download on the App Store